Terminal Aerodrome Forecast
Issued by NWS

Home | Current Version | Previous Version | Text Only | Print | Product List | Glossary On
Versions: 1 2 3 4 5 6 7 8 9 10 11 12
000
FTUS41 KBTV 031133
TAFRUT
TAF
KRUT 031133Z 0312/0412 VRB04KT 6SM BR BKN150
     FM031900 35006KT P6SM VCSH BKN060
     FM032300 01005KT P6SM SCT060
      AMD LTD TO CLD VIS AND WIND=

USA.gov is the U.S. government's official web portal to all federal, state and local government web resources and services.